Temp
58 58 58 59 58 58 58 58 58 57 58 58 58 58 57 57 56 54 50 52 51 45 45 50 51 50 48 48 44 47 47 44 37 37 36 36 35 40 38 40 36 36 31 28 28 27 34 48 46 45 50 45 48 48
58 58 58 58 58 58 58 58 58 57 57 57 58 58 57 57 56 55 49 53 53 46 46 48 50 51 52 51 53 46 48 44 48 42 38 41 38 35 39 36 38 38 43 36 38 41 50 47 52 53 49 52 50 49
57 58 58 56 56 57 57 58 58 57 57 56 57 57 57 57 56 53 49 49 48 44 46 48 49 55 53 54 57 47 44 50 47 50 42 38 37 38 34 37 40 40 44 40 41 46 49 49 53 49 50 51 51 51
57 57 58 57 57 57 57 57 58 57 57 56 56 56 57 56 55 54 47 48 46 42 35 41 52 51 58 56 55 55 53 50 49 46 37 33 34 43 39 42 41 46 44 42 40 46 48 51 51 55 52 51 51 51
56 56 57 57 57 57 57 58 58 57 57 57 57 56 57 56 55 53 46 47 49 43 35 38 45 51 52 53 54 54 52 49 45 41 35 34 38 40 36 36 39 44 44 44 48 51 54 58 59 54 51 52 53 51
55 56 56 56 57 57 57 57 57 57 57 57 57 57 56 56 55 45 38 45 48 46 38 35 43 43 46 48 50 51 52 47 45 42 41 39 41 45 32 35 55 52 52 56 57 55 52 53 54 55 52 52 51 50
55 55 56 56 56 56 56 56 56 56 56 56 56 56 55 55 49 46 39 44 49 46 36 32 34 39 43 45 45 45 48 44 46 42 40 42 42 43 28 42 54 51 55 57 57 51 51 52 56 55 52 54 52 50
54 55 55 55 56 56 56 56 56 56 56 56 55 55 55 54 51 44 43 49 49 39 37 32 32 34 40 35 38 42 39 41 40 43 40 43 42 40 35 49 47 54 56 52 53 57 59 62 62 59 51 50 48 49
54 54 55 55 55 55 56 56 56 55 55 55 53 53 48 40 37 39 48 47 43 39 31 32 31 29 37 32 35 38 40 35 40 37 40 41 38 35 43 47 49 47 49 52 53 55 55 55 57 57 49 47 50 49
54 54 54 54 55 55 55 56 55 54 53 51 44 38 32 35 48 47 38 33 32 32 32 31 35 29 35 31 33 35 35 34 30 34 40 35 36 44 49 50 47 48 51 54 51 50 53 55 58 57 49 52 51 50
53 54 54 54 54 54 55 55 54 52 47 40 33 30 36 45 38 33 29 30 30 28 31 33 33 29 37 32 32 34 32 32 29 32 34 32 32 43 51 51 53 55 52 52 54 57 57 57 56 50 46 47 47 46
53 53 53 53 53 54 54 54 51 43 40 39 36 38 36 33 31 28 27 29 28 28 30 32 33 34 34 38 34 33 31 31 28 36 32 28 38 48 48 49 52 54 54 54 55 54 55 50 49 48 48 46 44 44
52 53 53 53 53 53 53 53 49 45 44 39 34 31 30 29 24 24 21 24 25 28 30 33 31 34 34 35 33 32 29 29 35 30 28 32 37 40 41 44 48 51 51 52 52 53 54 53 47 46 44 44 43 43
50 51 52 52 53 53 53 48 48 45 39 32 29 23 25 22 22 25 24 25 30 29 31 36 30 32 34 33 32 29 32 31 27 25 26 37 34 40 44 42 41 42 43 45 45 47 48 48 44 44 45 44 43 41
51 52 52 52 52 52 49 48 48 41 34 30 29 24 23 25 25 26 28 27 30 36 37 34 33 32 31 31 31 30 27 26 26 27 31 34 38 38 38 38 39 39 40 41 42 42 42 41 42 40 41 41 41 40
51 51 48 52 52 49 48 47 41 36 32 31 30 26 27 25 22 27 28 25 34 38 38 35 31 29 29 30 27 27 27 25 28 31 35 37 37 37 37 37 37 38 38 39 38 39 40 40 40 40 39 40 40 40
51 42 50 51 50 48 46 37 34 32 32 29 28 27 27 27 27 27 30 31 38 37 30 31 28 27 31 27 26 30 28 31 35 37 38 39 39 38 38 37 37 37 37 37 37 38 39 39 39 39 37 38 38 39
42 46 51 50 47 41 33 33 33 31 28 26 28 29 27 30 28 27 30 36 37 34 32 30 31 28 26 23 24 27 30 34 38 39 40 39 38 38 39 37 37 37 37 37 38 38 39 39 39 38 37 37 36 36
45 49 50 47 44 35 32 30 31 26 24 27 25 25 29 29 31 34 35 40 36 36 34 32 29 26 26 27 29 32 34 35 36 36 36 37 37 37 37 37 37 37 36 36 37 38 39 38 38 37 37 37 35 36
51 49 47 47 43 32 28 26 27 25 24 25 27 27 27 25 27 30 32 34 34 33 31 29 29 30 31 33 35 36 36 36 36 35 35 37 37 36 36 36 36 37 36 36 36 39 36 35 36 37 38 38 36 34
43 45 42 36 30 28 25 21 23 19 23 24 29 29 26 31 30 25 27 35 32 32 29 30 27 33 36 36 38 37 38 38 37 36 35 35 37 35 36 37 36 36 35 35 35 36 37 35 36 38 38 37 37 36
34 39 32 33 28 25 23 18 20 21 21 26 27 23 27 28 29 31 32 32 31 35 29 30 32 36 35 35 37 37 39 40 39 37 40 38 34 34 34 35 35 35 36 37 36 37 36 36 37 36 37 36 37 35
39 36 31 29 24 23 21 20 18 16 22 24 27 23 23 25 29 34 30 32 30 31 36 37 35 36 37 39 40 39 39 38 37 35 37 37 35 36 36 36 37 36 35 35 37 36 37 39 39 36 36 35 34 33
38 29 26 23 20 13 9 7 12 13 14 23 21 9 15 21 28 29 26 26 29 30 32 35 36 35 34 32 36 40 42 40 39 36 36 34 34 35 36 37 36 38 40 40 38 37 37 37 39 36 35 34 33 33
29 23 24 16 10 8 6 16 9 14 13 11 11 14 12 22 24 24 23 24 26 29 33 32 34 36 35 37 38 39 43 40 38 37 38 38 36 35 34 34 35 39 39 37 36 36 36 36 36 35 33 34 33 33
19 18 16 8 8 13 14 12 12 14 16 12 13 12 18 23 19 15 20 25 27 30 30 30 32 32 33 37 37 38 40 42 42 38 39 38 38 38 36 34 33 35 37 41 38 37 36 36 35 34 34 35 38 34
13 12 13 14 19 19 18 20 20 15 8 8 9 17 14 7 11 21 26 27 28 29 31 31 32 32 34 36 39 41 42 39 39 41 43 39 41 42 41 38 36 39 37 39 38 38 37 36 36 35 35 33 34 34
15 14 17 16 19 22 15 13 12 13 17 19 19 14 12 15 20 27 28 29 29 30 30 31 32 33 33 35 38 38 36 37 38 35 34 34 36 40 41 43 41 40 38 39 40 39 39 38 37 35 35 35 34 33
13 15 20 15 17 19 20 19 18 23 24 23 20 18 19 25 27 26 27 29 31 31 29 29 32 34 32 34 34 37 36 34 32 30 31 33 33 35 36 38 39 39 38 38 41 40 38 38 37 36 36 36 35 33
12 16 18 17 16 17 22 25 24 25 25 26 27 27 28 28 28 29 29 28 28 28 29 30 32 31 29 31 31 31 33 36 39 38 35 35 38 38 36 37 37 38 35 35 35 35 42 39 38 34 32 31 31 30
15 19 17 19 18 23 24 25 26 27 27 26 27 26 25 28 28 28 27 28 29 30 29 28 30 32 29 30 31 31 32 35 35 37 38 39 39 38 36 36 37 35 34 34 34 34 34 34 33 31 31 32 32 33
18 20 20 15 17 21 25 24 25 25 24 23 24 24 25 25 23 25 29 28 26 25 27 27 27 27 31 32 33 32 35 34 34 35 35 36 36 36 36 35 34 34 33 33 33 34 33 33 32 32 32 32 32 32
11 16 19 19 15 15 21 21 19 17 19 19 20 21 23 24 20 24 30 31 28 27 27 29 30 31 32 31 30 30 32 32 34 36 38 37 37 38 35 34 34 33 32 32 33 33 33 33 32 32 32 32 32 32
MSLP
1004.79 1005.46 1006.13 1006.59 1007.16 1007.43 1007.98 1008.47 1009.07 1009.21 1009.73 1010.08 1010.68 1011.42 1012.34 1013.31 1014.33 1015.62 1016.09 1016.61 1016.64 1016.67 1015.91 1015.38 1015.06 1015.03 1015.39 1015.45 1016.08 1016.92 1017.88 1018.39 1019.04 1019.75 1020.27 1020.33 1019.94 1018.72 1018.50 1017.93 1018.29 1019.09 1020.57 1020.94 1020.76 1019.85 1015.92 1012.85 1013.78 1013.43 1011.46 1011.19 1011.33 1011.64
1004.20 1004.76 1005.14 1005.71 1006.24 1006.67 1007.17 1007.48 1008.12 1008.60 1009.17 1009.56 1009.80 1010.35 1011.13 1012.08 1012.91 1014.22 1015.34 1015.71 1016.50 1017.12 1015.92 1015.33 1014.96 1014.72 1014.64 1014.64 1014.78 1015.77 1015.87 1016.41 1016.74 1017.93 1018.74 1018.59 1018.79 1018.42 1017.88 1017.74 1017.16 1017.23 1015.80 1016.72 1016.71 1014.42 1012.42 1011.89 1011.04 1010.65 1010.67 1010.83 1011.03 1011.21
1003.52 1003.85 1004.32 1005.04 1005.41 1006.02 1006.38 1006.72 1007.14 1007.87 1008.28 1009.01 1009.26 1009.70 1010.38 1010.95 1011.73 1012.64 1013.94 1014.94 1016.16 1016.91 1016.20 1015.66 1014.11 1014.08 1014.36 1014.48 1014.25 1014.77 1015.47 1015.19 1015.82 1015.76 1017.12 1017.91 1018.31 1017.45 1017.30 1016.19 1015.61 1014.90 1014.48 1014.53 1014.58 1012.23 1011.51 1011.25 1010.58 1010.60 1010.51 1010.48 1010.28 1010.23
1002.51 1002.81 1003.51 1004.00 1004.42 1005.40 1005.77 1006.24 1006.37 1007.17 1007.67 1008.20 1008.62 1009.21 1009.70 1010.32 1010.91 1011.84 1012.67 1013.82 1015.11 1016.58 1017.08 1014.58 1013.88 1013.45 1013.29 1013.79 1014.02 1014.11 1014.25 1015.00 1015.29 1015.97 1016.70 1017.27 1017.32 1015.89 1015.57 1014.62 1013.90 1012.64 1013.10 1012.69 1011.74 1010.98 1010.63 1010.13 1009.98 1009.70 1009.60 1009.70 1009.91 1009.98
1001.80 1002.33 1002.76 1003.20 1003.76 1004.49 1004.92 1005.26 1005.79 1006.39 1006.84 1007.58 1008.08 1008.40 1009.07 1008.94 1009.70 1011.05 1012.29 1012.87 1013.47 1014.36 1015.37 1015.18 1014.27 1013.56 1013.23 1013.13 1013.35 1013.92 1014.19 1014.88 1015.72 1016.27 1016.34 1016.57 1015.89 1015.87 1015.19 1014.49 1010.73 1010.95 1010.64 1010.63 1008.84 1009.12 1008.80 1008.26 1008.13 1008.35 1009.05 1009.17 1008.91 1009.50
1001.31 1001.73 1002.09 1002.57 1003.10 1003.55 1004.09 1004.92 1005.41 1005.63 1005.86 1006.52 1007.03 1007.50 1008.16 1008.44 1009.33 1011.02 1012.83 1013.28 1013.63 1014.22 1015.20 1015.48 1014.33 1013.79 1013.47 1013.52 1013.37 1013.25 1013.63 1014.54 1015.16 1015.45 1015.35 1015.04 1014.62 1014.67 1014.44 1012.02 1005.99 1008.57 1008.54 1008.43 1007.25 1007.98 1007.81 1007.38 1007.27 1007.46 1008.04 1008.10 1008.17 1008.60
1000.73 1001.18 1001.49 1001.85 1002.68 1003.14 1003.54 1004.15 1004.87 1004.75 1005.18 1005.98 1006.32 1006.99 1007.43 1008.10 1008.63 1009.36 1010.52 1010.57 1012.13 1013.62 1015.06 1015.59 1014.57 1013.51 1013.39 1013.72 1013.72 1013.91 1013.79 1013.89 1014.42 1014.87 1014.71 1014.69 1014.46 1014.06 1013.23 1010.28 1003.70 1007.16 1006.83 1007.04 1007.06 1007.45 1007.09 1007.09 1006.68 1006.72 1006.97 1007.28 1007.47 1007.73
999.93 1000.50 1000.73 1001.25 1001.94 1002.34 1002.89 1003.29 1003.74 1004.34 1004.88 1005.70 1005.75 1006.12 1006.53 1007.25 1008.03 1008.97 1009.82 1010.24 1011.84 1014.00 1015.10 1014.88 1014.28 1014.24 1013.41 1013.51 1013.84 1013.91 1013.93 1014.10 1014.18 1013.87 1014.01 1013.72 1014.08 1013.55 1011.80 1003.58 1006.04 1006.47 1006.67 1006.71 1006.53 1006.33 1005.84 1005.88 1005.95 1005.74 1006.37 1007.20 1007.88 1007.97
999.06 999.52 999.99 1000.50 1001.13 1001.76 1002.09 1002.67 1002.92 1003.55 1004.25 1005.10 1005.55 1005.67 1006.45 1007.30 1008.19 1009.02 1009.79 1010.83 1011.94 1013.03 1013.78 1013.64 1013.54 1013.73 1013.62 1013.67 1013.52 1013.94 1013.81 1014.03 1014.08 1013.39 1013.13 1013.29 1012.24 1010.51 1004.94 1005.49 1005.73 1005.98 1005.62 1005.70 1005.66 1005.41 1005.41 1005.41 1004.82 1004.94 1005.63 1006.39 1007.01 1007.59
998.33 998.90 999.44 1000.14 1000.62 1001.06 1001.43 1001.92 1002.45 1003.43 1004.33 1004.95 1006.11 1006.85 1007.95 1008.22 1008.05 1009.13 1011.26 1012.00 1012.67 1012.78 1013.04 1012.89 1012.39 1012.97 1013.14 1013.79 1014.05 1014.06 1013.50 1013.62 1013.55 1012.81 1012.65 1011.76 1010.42 1007.31 1005.13 1005.60 1005.12 1005.11 1004.91 1004.96 1004.71 1004.19 1004.23 1003.80 1004.06 1004.32 1005.09 1005.61 1006.09 1006.72
997.77 998.36 998.92 999.61 1000.02 1000.44 1001.01 1001.53 1002.17 1003.64 1004.53 1005.16 1006.91 1008.26 1009.03 1009.06 1008.91 1009.94 1010.98 1011.24 1012.13 1012.78 1012.22 1011.61 1011.36 1012.16 1012.82 1013.04 1013.24 1012.95 1012.63 1012.95 1012.59 1011.82 1011.54 1010.31 1008.11 1003.45 1004.87 1004.26 1003.54 1004.22 1004.18 1003.77 1003.20 1002.71 1003.05 1003.04 1003.55 1004.13 1004.98 1005.15 1005.72 1006.12
997.27 997.83 998.37 999.01 999.56 1000.03 1000.50 1001.12 1002.19 1003.41 1004.58 1005.19 1006.81 1008.56 1009.64 1009.80 1009.75 1009.75 1010.36 1011.10 1010.97 1010.44 1010.13 1009.50 1010.29 1011.15 1011.82 1011.69 1012.24 1012.41 1012.02 1012.45 1011.41 1010.75 1010.53 1008.72 1003.77 1002.85 1002.97 1002.65 1002.61 1002.59 1002.19 1001.97 1002.42 1002.21 1002.49 1003.04 1003.58 1003.89 1004.26 1004.77 1005.39 1005.73
996.81 997.27 997.86 998.35 998.81 999.35 999.89 1000.84 1001.89 1003.46 1004.55 1005.92 1007.24 1008.31 1008.64 1009.52 1009.59 1009.32 1009.86 1010.27 1009.89 1008.58 1008.51 1008.45 1009.08 1010.47 1011.25 1011.28 1011.40 1011.68 1011.35 1011.01 1010.68 1010.24 1008.81 1005.59 1002.35 1002.14 1002.03 1002.01 1001.77 1001.20 1001.21 1001.26 1001.31 1001.57 1002.08 1002.39 1003.09 1003.74 1003.83 1004.13 1005.12 1005.84
996.68 997.03 997.39 997.83 998.28 998.92 999.64 1000.94 1001.97 1002.89 1004.33 1006.18 1007.14 1008.36 1008.59 1008.70 1008.36 1007.37 1007.20 1006.88 1006.82 1007.11 1007.50 1008.02 1009.21 1009.36 1010.00 1010.49 1010.31 1010.44 1010.18 1010.01 1009.83 1008.57 1005.93 1002.14 1002.36 1002.37 1002.17 1001.79 1002.10 1001.55 1001.50 1001.27 1000.84 1000.91 1001.56 1002.14 1002.81 1003.12 1003.63 1004.20 1004.83 1005.90
996.19 996.51 997.02 997.61 997.84 998.61 999.97 1000.89 1001.56 1002.56 1004.70 1005.87 1006.51 1006.79 1006.97 1006.04 1006.31 1006.00 1006.02 1006.37 1006.44 1006.44 1007.07 1008.17 1008.69 1009.30 1009.39 1009.21 1009.08 1009.10 1009.28 1008.60 1007.57 1004.94 1002.63 1002.05 1001.78 1001.91 1002.16 1002.15 1001.93 1001.45 1001.23 1001.09 1000.57 1000.76 1001.21 1002.01 1002.69 1003.13 1003.51 1004.03 1004.81 1005.61
995.72 996.40 996.76 996.90 997.62 998.89 1000.03 1001.35 1002.47 1003.21 1004.55 1004.84 1005.31 1005.59 1005.72 1005.88 1005.90 1005.99 1006.11 1006.11 1006.20 1006.51 1006.94 1007.45 1008.22 1008.39 1008.30 1008.10 1008.04 1007.53 1007.48 1006.24 1003.74 1002.59 1002.05 1001.92 1002.08 1001.98 1001.87 1001.72 1001.35 1001.44 1001.36 1000.87 1000.66 1001.16 1001.50 1002.01 1002.47 1002.95 1003.55 1004.18 1004.59 1005.01
995.59 995.79 995.85 996.65 997.85 999.22 1000.33 1001.65 1002.88 1003.74 1003.68 1003.92 1004.20 1004.16 1004.57 1004.22 1004.09 1004.67 1004.66 1005.43 1005.75 1005.93 1005.91 1006.79 1007.10 1006.89 1007.15 1007.26 1007.04 1006.17 1004.83 1002.76 1002.14 1002.11 1002.09 1002.11 1002.05 1001.83 1001.64 1001.28 1001.24 1001.38 1001.18 1001.35 1001.49 1001.40 1001.47 1002.04 1002.60 1003.33 1004.05 1004.42 1004.47 1004.98
995.25 995.24 995.55 996.73 998.37 999.99 1001.55 1002.14 1002.75 1003.19 1003.69 1003.89 1003.74 1003.69 1004.13 1004.06 1003.99 1004.39 1004.61 1004.83 1005.24 1005.46 1005.87 1005.98 1006.06 1006.27 1006.19 1005.86 1004.71 1003.59 1003.17 1002.48 1001.87 1001.98 1001.91 1001.62 1001.52 1001.31 1001.41 1001.25 1001.32 1001.39 1001.73 1001.88 1001.56 1001.82 1002.10 1002.48 1002.87 1003.37 1003.92 1004.53 1004.85 1005.15
994.59 995.01 995.91 996.91 998.00 1000.18 1001.84 1002.97 1003.22 1003.61 1004.13 1004.12 1003.81 1003.48 1003.89 1004.07 1003.93 1003.77 1003.80 1004.04 1004.43 1004.98 1005.58 1005.75 1005.67 1004.97 1004.06 1003.50 1003.13 1002.75 1002.55 1002.20 1002.18 1001.91 1001.78 1001.48 1001.51 1001.40 1001.27 1001.20 1001.28 1001.55 1002.11 1002.05 1001.64 1002.23 1002.95 1003.05 1003.19 1003.62 1003.81 1004.37 1004.89 1005.39
994.54 995.42 996.43 997.55 998.41 1000.61 1002.37 1003.44 1003.56 1003.67 1004.25 1004.11 1003.89 1003.65 1003.85 1004.07 1004.18 1004.08 1004.06 1004.16 1004.69 1005.33 1005.52 1004.77 1003.37 1002.86 1002.61 1002.22 1001.97 1001.89 1001.76 1001.62 1001.83 1001.97 1001.73 1001.45 1001.36 1001.12 1001.02 1001.08 1001.03 1001.39 1002.11 1002.31 1002.31 1002.45 1003.08 1003.65 1003.84 1003.90 1004.03 1004.44 1004.83 1005.29
995.44 996.52 997.58 998.05 1000.14 1001.13 1002.56 1003.47 1003.74 1004.08 1004.19 1004.10 1003.93 1003.97 1004.33 1004.40 1004.50 1004.50 1004.50 1004.48 1004.93 1004.50 1003.81 1002.36 1001.99 1001.70 1001.51 1001.36 1001.20 1001.35 1001.08 1000.91 1001.21 1001.40 1001.34 1001.21 1001.01 1001.23 1001.13 1001.07 1001.10 1001.53 1001.84 1002.23 1002.61 1002.96 1003.15 1003.37 1003.72 1004.18 1004.12 1004.49 1004.51 1004.72
996.75 997.43 998.44 999.33 1000.74 1002.24 1003.12 1003.90 1004.03 1004.32 1004.49 1004.47 1004.53 1004.66 1004.79 1004.60 1004.42 1004.29 1004.26 1004.26 1003.54 1002.12 1001.64 1001.29 1001.14 1001.07 1001.19 1001.09 1000.96 1000.90 1000.79 1000.43 1000.11 1000.00 1000.38 1001.03 1001.11 1001.00 1000.98 1000.95 1001.23 1001.34 1001.58 1001.79 1002.18 1002.61 1002.84 1003.46 1004.05 1004.17 1004.13 1004.22 1004.45 1004.86
996.92 997.42 998.93 1000.21 1001.33 1002.64 1004.20 1004.04 1004.34 1004.64 1004.91 1004.95 1004.80 1005.11 1005.28 1004.95 1004.21 1003.86 1003.72 1002.87 1001.64 1000.46 1000.45 1000.57 1000.46 1000.27 1000.14 999.98 999.90 999.75 999.76 999.80 999.82 999.95 1000.20 1000.43 1000.31 1000.15 1000.23 1000.27 1000.43 1000.67 1001.21 1001.52 1001.71 1002.10 1002.57 1003.04 1003.77 1004.07 1003.92 1004.28 1004.60 1004.78
996.99 998.73 999.99 1000.97 1002.11 1003.89 1004.49 1004.94 1005.06 1005.36 1005.52 1005.55 1005.54 1005.77 1005.33 1004.72 1003.89 1003.35 1002.65 1001.41 1000.13 1000.01 999.90 999.68 999.78 999.55 999.44 999.33 999.02 998.67 998.50 998.77 998.99 999.22 999.25 999.67 999.70 999.69 999.71 999.77 999.88 1000.03 1000.27 1000.67 1001.26 1001.75 1002.09 1002.99 1003.53 1003.65 1003.81 1004.13 1004.33 1004.67
998.22 1000.77 1001.06 1002.39 1003.29 1004.14 1004.96 1005.33 1005.35 1005.56 1005.73 1005.66 1005.95 1005.51 1004.92 1004.39 1003.72 1003.04 1002.02 1000.66 999.70 999.31 998.83 998.71 998.74 998.52 998.34 997.87 997.78 997.66 997.53 997.85 998.08 998.09 997.99 998.30 998.70 999.05 999.27 999.27 999.30 999.39 999.85 1000.14 1000.86 1001.64 1002.10 1002.51 1002.91 1003.23 1003.51 1003.81 1003.99 1004.38
1000.07 1001.75 1002.37 1003.00 1003.95 1004.26 1004.67 1005.05 1005.32 1005.30 1005.39 1005.67 1005.47 1005.12 1004.70 1004.12 1003.61 1002.63 1001.11 999.32 998.88 998.52 998.35 998.36 998.21 998.06 997.68 997.32 997.00 996.69 996.49 996.72 997.00 997.06 996.83 997.11 997.54 997.85 998.23 998.84 999.08 999.22 999.29 999.51 1000.12 1000.93 1001.43 1001.90 1002.25 1002.55 1002.93 1003.20 1003.48 1003.76
1001.53 1002.47 1002.89 1002.99 1003.22 1003.56 1004.02 1004.12 1004.26 1004.44 1004.91 1004.81 1004.84 1004.91 1004.73 1004.01 1002.64 1000.68 999.15 998.82 998.77 998.49 998.35 998.19 997.83 997.62 997.20 996.79 996.42 996.08 995.78 995.87 995.87 995.55 995.57 996.02 996.28 996.52 996.93 997.31 997.65 997.65 998.23 998.99 999.51 999.94 1000.55 1001.15 1001.54 1001.85 1002.22 1002.58 1002.83 1002.95
1001.89 1002.28 1002.60 1002.95 1002.88 1002.87 1003.22 1003.39 1003.55 1003.57 1003.28 1003.30 1003.62 1003.78 1003.26 1001.97 1000.40 999.51 999.16 998.96 998.88 998.72 998.40 998.06 997.59 997.23 996.84 996.40 995.97 995.60 995.28 995.30 995.39 995.60 995.70 995.76 995.79 995.98 996.07 996.19 996.37 996.64 997.31 998.10 998.62 999.08 999.55 1000.05 1000.48 1000.95 1001.47 1001.90 1002.17 1002.34
1002.58 1002.40 1002.34 1002.76 1002.70 1002.58 1002.46 1002.32 1002.06 1001.66 1001.39 1001.83 1001.92 1001.60 1001.06 1000.35 999.94 999.83 999.61 999.50 999.17 998.85 998.51 997.99 997.13 996.68 996.35 995.73 995.22 994.82 994.72 994.93 995.35 995.36 995.46 995.54 995.67 995.72 995.87 996.15 996.24 996.54 997.02 997.47 997.83 998.16 998.60 999.08 999.57 1000.02 1000.44 1000.85 1001.13 1001.50
1002.63 1002.33 1002.26 1002.20 1002.13 1001.80 1001.14 1000.98 1000.95 1000.80 1000.68 1000.65 1000.58 1000.36 1000.10 1000.04 1000.34 1000.35 1000.03 999.66 999.25 998.91 998.49 998.11 997.47 996.92 996.35 995.76 995.18 994.66 994.45 994.19 994.10 994.40 994.64 994.71 994.78 994.84 995.01 995.55 996.08 996.28 996.53 996.90 997.25 997.76 998.27 998.73 999.10 999.57 999.93 1000.31 1000.74 1001.21
1002.43 1002.29 1002.19 1001.93 1001.74 1001.15 1000.91 1000.81 1000.65 1000.53 1000.47 1000.31 1000.15 1000.17 999.98 999.89 1000.12 1000.33 1000.29 1000.03 999.64 999.22 998.77 998.41 997.82 997.31 996.97 996.39 995.92 995.44 994.89 994.43 994.35 994.25 994.16 994.10 994.14 994.18 994.28 994.61 995.09 995.41 995.83 996.34 996.78 997.18 997.66 998.06 998.44 998.81 999.27 999.65 1000.03 1000.35
1002.64 1002.36 1002.16 1002.02 1001.68 1001.25 1001.08 1001.03 1000.76 1000.58 1000.40 1000.36 1000.15 1000.07 999.99 999.94 1000.22 1000.67 1000.63 1000.21 999.84 999.45 999.12 998.78 998.17 997.72 997.35 996.84 996.49 996.16 995.88 995.42 994.86 994.55 994.30 994.16 993.93 993.96 993.93 994.40 994.86 995.17 995.52 995.94 996.32 996.62 996.89 997.24 997.70 998.15 998.58 998.93 999.32 999.68
1003.03 1002.62 1002.41 1002.28 1002.06 1001.82 1001.59 1001.51 1001.29 1001.13 1000.88 1000.67 1000.59 1000.54 1000.45 1000.44 1000.91 1001.35 1000.93 1000.73 1000.57 1000.13 999.57 998.89 998.54 998.20 997.83 997.54 997.21 996.75 996.31 995.94 995.44 994.76 994.08 993.89 993.97 994.08 994.23 994.41 994.69 995.03 995.42 995.73 995.92 996.07 996.36 996.72 997.16 997.56 997.91 998.29 998.66 999.00
Wind_Speed
22 24 26 25 24 22 22 21 19 8 11 23 28 30 31 30 28 14 3 7 6 3 5 5 3 5 3 5 7 5 5 2 3 5 6 6 6 8 4 6 10 11 10 6 2 3 15 8 6 10 9 3 3 5
18 20 23 27 25 26 25 23 20 17 13 9 22 28 30 31 31 23 6 6 5 2 3 1 4 3 3 1 6 5 4 6 6 4 3 4 4 2 4 6 1 6 11 10 14 12 4 9 7 10 3 6 7 6
18 20 21 18 18 21 23 23 22 21 19 17 12 15 25 31 32 26 6 7 4 1 6 6 10 7 4 6 3 6 3 4 4 3 5 4 5 5 6 9 6 5 5 5 2 8 15 9 11 5 8 9 6 8
18 17 19 21 23 23 23 24 23 23 22 20 18 16 20 28 30 29 7 8 6 5 3 8 2 10 6 7 6 4 2 3 4 3 3 4 4 5 5 4 8 6 10 8 8 8 9 9 10 13 11 10 8 7
19 19 19 18 19 20 22 22 23 25 23 22 21 19 20 28 31 19 4 8 8 7 6 4 6 5 4 6 15 8 6 4 2 2 3 5 3 2 2 2 12 8 10 9 12 8 11 12 11 9 12 13 16 12
21 20 19 19 18 18 19 21 21 23 25 23 22 20 16 21 25 6 3 1 9 3 4 3 2 3 2 3 7 14 11 4 4 4 4 3 3 5 4 11 28 14 11 14 21 9 10 7 7 5 10 11 10 11
22 22 20 19 20 19 18 19 18 16 15 12 14 22 19 21 13 7 9 7 21 6 4 2 4 2 3 3 2 2 3 4 5 4 6 3 3 5 2 24 23 5 13 16 12 4 12 5 11 9 10 9 7 6
21 23 20 19 18 18 18 18 18 16 15 15 10 14 21 19 15 4 1 23 17 7 3 4 3 2 6 4 3 2 4 3 2 5 0 10 2 2 9 37 7 17 21 13 10 14 20 17 17 14 7 5 7 8
21 22 20 18 18 18 17 17 18 15 15 12 5 2 1 4 3 4 14 19 5 4 7 4 5 6 3 1 3 2 2 4 1 5 8 5 5 13 30 18 17 7 8 11 13 17 16 18 20 16 10 9 13 11
22 21 19 19 18 18 17 17 19 14 11 16 6 4 3 4 31 17 5 3 2 1 1 4 3 4 4 3 2 3 2 4 4 5 4 5 9 29 29 17 7 8 11 11 16 19 19 20 24 18 11 11 12 12
20 20 19 18 18 18 18 19 19 20 10 3 4 3 3 6 4 3 4 5 4 4 6 4 6 5 3 4 3 3 3 3 4 5 7 5 8 29 22 31 29 22 16 17 20 20 17 18 14 8 7 9 8 8
16 18 17 18 18 19 20 20 23 7 2 8 12 6 3 1 1 5 4 2 5 8 6 7 6 4 4 4 3 4 4 4 6 6 4 4 16 14 11 11 17 25 29 30 26 23 18 9 8 8 8 8 9 8
17 15 17 17 18 18 19 23 20 33 18 4 4 4 4 2 3 7 9 5 5 5 6 7 8 5 2 2 3 4 6 6 4 4 5 11 3 3 6 6 13 14 13 16 17 19 20 20 9 8 8 6 9 9
20 21 18 17 17 17 20 30 34 17 7 4 4 6 6 6 7 8 7 5 4 5 9 10 2 4 3 5 4 5 5 4 5 5 12 8 3 6 9 3 4 6 6 8 8 9 11 12 11 8 9 10 11 10
19 18 18 16 17 16 31 34 24 6 4 5 5 7 8 3 2 4 4 4 3 9 10 6 4 2 2 4 4 4 5 5 8 11 6 3 6 5 5 5 8 8 7 8 6 7 8 9 10 9 9 10 9 10
19 11 8 14 17 32 34 22 4 3 2 5 5 5 1 3 2 3 4 3 5 9 6 3 4 4 5 4 5 7 6 10 9 4 5 2 2 4 4 6 6 7 7 6 5 6 7 9 11 10 9 9 9 10
18 4 14 18 31 34 24 6 3 3 5 5 4 2 4 1 3 3 4 4 6 10 5 4 7 8 4 4 5 6 9 2 1 1 2 4 5 6 7 6 5 5 4 4 5 6 7 7 10 10 10 8 8 8
2 5 22 31 24 12 3 3 3 3 3 2 4 5 1 1 4 4 5 6 8 7 3 4 3 4 6 7 6 3 3 4 3 3 4 3 4 7 5 7 4 4 4 4 5 5 6 9 10 7 7 6 6 6
7 13 31 32 14 6 4 2 1 4 1 1 0 3 2 1 1 2 3 9 4 4 4 3 4 6 6 3 4 3 3 2 3 3 3 5 6 7 6 5 5 5 6 5 6 5 4 5 5 5 5 5 5 4
21 29 32 26 10 4 5 2 1 4 4 2 1 3 3 1 1 2 4 5 4 3 4 6 7 5 5 4 5 4 3 1 2 4 4 4 4 4 6 5 4 5 4 3 4 6 5 3 2 4 4 5 5 5
10 15 18 8 4 4 4 2 3 3 3 2 2 3 3 2 2 2 2 4 3 4 6 7 4 4 5 3 3 2 4 5 5 5 4 6 4 4 3 3 4 4 4 4 4 4 6 4 4 4 5 4 4 4
4 11 4 4 5 4 4 1 4 3 3 3 4 3 3 3 3 3 4 4 5 8 5 4 3 5 6 6 6 6 7 7 5 2 5 6 3 3 4 4 4 5 5 6 6 6 4 4 4 4 4 4 5 4
12 4 4 3 5 4 1 3 5 3 4 3 2 3 2 2 2 5 4 5 6 5 6 8 7 7 7 6 7 6 7 7 6 5 5 6 5 4 4 4 5 6 5 4 4 4 5 6 7 5 4 5 4 4
6 5 4 3 4 3 3 3 1 4 3 5 5 3 4 5 3 3 5 5 4 2 5 11 6 7 6 6 10 11 11 8 8 5 4 5 4 5 5 5 4 4 6 4 5 4 4 5 8 5 5 5 5 5
6 4 3 5 5 6 4 2 3 3 3 3 3 3 4 3 4 4 4 5 4 5 8 7 7 9 11 10 9 10 11 8 8 9 6 7 5 2 3 3 4 6 5 6 6 6 6 6 6 7 6 6 7 7
6 3 3 4 1 4 4 4 5 4 3 2 4 2 0 2 3 7 5 4 4 5 4 6 7 7 9 10 10 9 9 8 7 8 7 8 9 9 7 6 5 5 6 6 7 9 8 8 9 10 8 10 13 8
4 1 1 1 4 4 3 1 2 3 4 6 3 4 2 4 8 7 3 2 2 2 2 3 3 5 8 9 8 9 5 6 9 9 6 7 7 9 9 10 12 6 8 10 9 9 11 11 9 10 9 6 7 8
3 3 5 3 2 1 4 3 4 6 4 3 5 5 7 9 6 2 2 2 3 4 4 5 4 5 6 7 7 6 4 5 4 2 3 1 3 6 9 7 4 13 8 10 11 9 10 10 10 10 10 10 8 7
1 1 4 3 2 3 5 7 5 4 4 5 6 4 5 3 2 4 4 4 4 4 5 6 7 4 5 6 6 7 5 6 8 7 10 8 4 5 4 4 4 5 5 7 15 12 13 10 10 10 11 10 8 6
2 3 3 3 3 5 4 5 2 0 1 2 1 2 2 1 2 3 4 4 5 5 5 7 7 5 6 6 8 6 3 4 7 8 9 9 7 3 6 7 7 6 5 6 6 6 13 9 7 5 5 4 4 5
0 1 1 2 3 1 0 1 2 2 2 2 3 2 2 1 3 1 6 6 5 5 5 6 6 5 6 7 6 6 4 3 5 6 4 2 4 5 5 6 5 5 6 8 7 8 7 7 7 7 9 10 11 11
1 3 2 1 3 2 1 1 1 1 1 1 1 1 1 1 2 4 7 8 7 8 11 8 7 8 8 6 4 3 7 5 5 3 4 4 4 4 3 3 4 4 5 6 7 8 9 10 8 9 10 12 11 11
3 2 2 1 3 3 1 1 1 3 1 1 1 1 1 2 3 3 4 5 6 7 8 7 5 5 7 7 7 5 8 5 8 12 11 4 5 4 3 3 3 4 6 5 6 7 10 10 9 10 10 10 10 11
Wind_Direction
223 224 227 222 217 210 202 195 204 217 243 214 206 199 196 191 182 175 206 192 193 212 267 191 219 158 143 162 156 173 76 321 55 162 159 201 209 222 212 192 173 165 169 195 122 212 275 162 67 181 206 233 200 192
228 228 231 223 222 212 205 201 203 196 191 201 214 206 198 194 184 178 205 170 179 242 299 254 254 243 220 131 155 196 179 164 176 150 208 171 209 191 173 248 37 224 190 183 188 205 246 212 210 224 191 178 207 189
227 225 218 208 224 231 221 206 204 204 196 206 195 204 210 198 189 181 178 139 126 114 293 256 230 226 163 204 202 148 251 179 196 183 158 190 220 131 183 232 210 242 163 222 106 208 237 222 249 244 202 227 226 224
227 223 224 222 217 226 224 219 213 211 207 210 207 212 213 206 194 185 169 160 117 115 214 265 320 247 197 188 204 203 136 52 89 126 154 161 180 183 218 255 217 181 152 183 258 280 303 255 234 236 230 225 238 230
228 221 221 223 222 223 230 223 221 217 209 210 210 213 232 205 192 183 97 177 169 152 183 265 323 253 230 211 207 194 159 144 174 157 155 214 174 140 215 349 243 181 186 197 239 204 227 249 237 211 221 226 226 218
227 221 218 218 220 219 224 227 225 224 218 212 210 210 223 202 169 112 71 232 183 121 116 219 337 272 270 252 230 209 200 171 173 174 223 238 239 168 212 253 263 210 207 223 246 225 219 235 254 232 228 233 216 205
225 218 210 209 215 218 216 215 211 202 206 220 224 214 202 187 159 170 177 179 164 113 105 238 261 218 187 196 182 166 188 190 188 182 219 186 218 178 192 257 239 238 221 228 229 204 256 210 254 220 215 230 211 212
220 215 208 207 210 210 211 208 204 203 204 208 211 220 197 193 178 144 83 143 133 91 154 192 233 286 181 168 176 183 149 131 231 213 171 222 180 169 248 246 264 245 240 237 224 229 247 257 255 243 208 191 209 210
216 209 208 211 212 214 210 209 202 200 202 209 150 192 359 50 123 142 143 118 52 128 171 170 172 213 156 139 131 117 177 167 131 215 213 183 181 215 235 251 253 228 216 222 221 233 241 245 248 245 201 193 214 214
208 204 204 211 212 212 207 207 197 188 145 113 75 91 71 298 120 104 32 84 63 120 125 204 154 179 132 170 184 132 164 187 206 216 150 225 240 253 249 251 235 214 216 218 225 234 234 242 250 254 215 221 205 201
202 204 203 210 210 207 203 198 182 140 97 46 83 68 182 76 45 57 137 146 141 189 187 194 177 139 212 158 161 206 159 181 214 201 196 204 244 241 249 245 245 245 236 233 231 237 230 237 247 224 206 205 199 180
204 205 203 208 208 205 200 193 149 104 105 116 106 101 91 123 119 124 149 162 190 199 193 169 166 159 175 163 138 178 176 182 230 149 205 237 250 244 237 244 234 232 237 242 242 247 242 239 200 200 196 194 194 168
212 219 212 210 205 199 195 162 136 122 115 75 81 110 141 169 146 172 171 183 217 196 179 174 140 133 120 183 153 175 201 209 136 192 224 234 249 241 249 238 236 235 242 244 247 248 251 245 202 192 186 168 153 152
216 225 212 208 202 193 170 143 140 116 88 88 126 142 211 182 217 196 188 162 185 127 147 150 102 135 155 168 159 191 199 155 203 212 229 238 214 232 240 266 302 267 235 229 228 228 226 209 198 175 176 163 149 155
225 207 203 199 194 177 147 152 145 77 125 149 149 194 208 215 185 184 152 107 179 148 151 130 90 109 159 187 187 171 181 218 214 227 223 212 225 239 252 253 257 256 239 239 227 209 190 170 168 162 151 142 137 134
213 194 199 184 171 149 151 144 105 73 103 147 178 149 212 120 213 171 162 137 159 158 125 86 151 174 204 198 179 199 191 217 232 218 232 244 246 267 272 263 258 255 250 247 194 178 162 158 162 154 139 146 147 143
187 199 168 156 148 148 138 90 102 162 176 173 205 184 180 65 167 153 117 156 166 161 150 153 190 197 131 198 210 198 220 272 208 285 284 238 248 284 295 296 286 269 237 188 166 156 150 136 128 136 152 175 153 151
167 176 152 141 135 98 46 60 116 146 184 217 176 145 170 272 131 140 159 152 157 185 141 190 138 193 201 202 225 247 235 265 237 237 260 272 288 284 269 272 264 219 208 180 146 136 139 150 157 167 145 148 139 144
161 149 145 137 125 96 108 97 19 138 193 268 218 100 131 169 157 131 142 158 80 93 120 161 222 214 219 217 207 248 236 232 250 257 271 296 281 274 273 245 209 181 185 176 146 141 164 174 162 150 144 145 148 151
150 150 143 140 106 117 130 119 93 121 156 188 135 109 100 107 61 125 135 143 110 129 203 222 215 201 199 210 197 209 217 220 33 331 304 287 266 269 246 213 195 170 159 118 108 123 119 113 159 149 150 162 146 169
96 125 113 79 91 94 110 140 79 146 137 100 92 115 107 107 150 139 122 144 185 210 234 225 209 211 231 230 201 233 211 179 191 177 257 298 300 260 251 208 161 155 147 149 150 173 172 175 176 182 163 168 166 148
93 82 88 58 76 54 73 356 135 165 81 109 123 104 135 169 160 174 134 197 229 229 211 197 225 205 224 232 234 210 231 240 245 191 237 249 255 240 235 197 162 178 172 176 171 178 173 176 185 181 170 159 148 149
110 63 70 90 114 76 86 31 77 18 110 149 84 94 179 210 217 146 215 222 244 214 212 228 221 212 223 231 224 230 220 219 237 219 229 230 230 231 216 183 182 171 179 195 162 157 170 173 191 180 156 147 156 138
80 64 72 71 76 116 38 23 60 101 84 170 163 216 214 202 199 210 239 236 237 209 213 233 227 250 244 234 237 240 239 214 233 225 203 193 220 234 205 200 184 187 191 156 164 164 145 174 189 174 164 168 168 162
76 8 61 41 17 78 67 79 23 69 133 171 135 255 242 188 198 222 234 265 225 231 235 222 221 227 238 245 241 239 237 200 216 225 216 192 198 172 199 219 208 193 163 148 157 174 184 177 182 180 177 181 176 185
80 332 95 163 350 101 161 128 181 171 137 156 238 279 17 179 208 239 234 237 221 244 232 209 222 237 246 243 248 244 236 209 216 223 224 180 190 196 199 196 198 229 186 176 165 184 189 190 189 185 191 198 195 176
103 171 328 267 113 118 80 74 114 114 165 197 200 169 114 193 231 243 273 269 262 296 320 293 240 235 253 262 255 256 248 182 198 227 230 182 199 198 191 191 206 209 160 182 179 178 191 193 195 195 198 191 198 185
146 159 144 191 90 149 138 150 169 205 215 187 133 184 200 204 233 244 239 346 337 313 298 283 269 255 264 267 266 263 241 210 216 104 58 24 208 204 209 209 181 160 164 183 190 188 188 189 191 192 195 201 203 192
90 234 106 138 152 185 207 192 210 219 168 166 181 210 238 235 355 1 356 345 317 328 321 321 316 308 289 269 261 250 213 168 169 184 208 224 213 230 185 195 173 164 168 178 195 189 189 186 189 192 196 198 198 173
255 174 120 142 165 218 234 185 223 269 225 201 243 285 241 117 80 354 346 344 354 343 327 310 307 310 314 321 311 303 241 207 205 204 216 222 226 176 161 170 194 204 178 180 179 183 207 205 206 188 163 152 162 163
299 85 61 177 233 245 107 331 264 225 226 229 209 237 235 185 137 2 17 346 335 337 356 344 328 348 342 328 331 321 304 258 247 247 254 240 190 188 183 186 196 172 172 181 179 181 182 185 183 181 188 198 201 193
150 174 129 303 284 292 198 256 271 265 265 285 265 289 286 211 82 29 2 356 357 358 346 336 335 340 330 318 318 330 332 327 358 321 269 247 228 228 187 162 166 163 168 181 185 184 185 187 187 196 206 209 204 197
24 13 8 320 320 339 334 2 307 309 284 263 312 12 37 22 80 15 316 3 359 349 336 327 330 343 10 19 12 4 1 352 9 18 14 339 263 226 156 153 160 167 178 186 189 185 187 188 197 200 206 207 201 198